www.pogodaiklimat.ru

Погода и климат >> Архив погоды >> Гана >> Акюс


ПОГОДА в Акюсе

  • Прогноз погоды в Акюсе
  • Монитор погоды в Акюсе

АРХИВ ПОГОДЫ в Акюсе

Время (UTC), дата Ветер
(напр.,м/с)
 
Видим.   Явления Облачность Т
(С)
Тd
(С)
f
(%)
Тe
(С)
Тes
(С)
Комфортность P
(гПа)
Po
(гПа)
Тmin
(С)
Tmax
(С)
R
(мм)
R24
(мм)
S
(см)
21 19.03 ЮЗ 2 12 км 8/8 360 м
[Sc]
+30.5 +25.8 76 +45 +45 опасность
перегрева
1010.3 1008.1
00 20.03 ЮЗ 2 12 км 8/0
[Cs]
+29.5 +25.8 81 +44 +44 опасность
перегрева
1011.1 1008.9
12 20.03 ЮЗ 1 14 км 9/3 450 м
[Cu med, cong Cs]
+35.0 +25.0 56 +48 +63 опасность
перегрева
1011.0 1008.9
15 20.03 СЗ 1 14 км 6/6 450 м
[Cu med, cong Ci sp]
+36.8 +25.0 51 +50 +55 опасность
перегрева
1007.0 1004.9
18 20.03 ЮЗ 2 12 км гроза без осадков 9/4 360 м
[Cb cap Cs]
+30.0 +25.2 76 +44 +44 опасность
перегрева
1006.8 1004.6 +36.5
21 20.03 ЮЗ 1 10 км 9/0
[Cs]
+29.9 +25.9 79 +45 +45 опасность
перегрева
1011.1 1008.9
06 21.03 ЮВ 1 12 км 9/0
[Ac trans Cs]
+26.8 +24.6 88 +38 +38 очень
душно
1008.4 1006.2 +26.9
09 21.03 ЮЗ 2 16 км 5/0
[Ci sp]
+31.7 +24.9 67 +45 +56 опасность
перегрева
1011.0 1008.8
12 21.03 СЗ 2 16 км 6/6 450 м
[Cu med, cong]
+35.7 +25.2 55 +50 +59 опасность
перегрева
1009.4 1007.3
15 21.03 ЮВ 2 16 км 6/6 400 м
[Cb cap]
+37.0 +25.0 50 +50 +55 опасность
перегрева
1005.3 1003.2
18 21.03 ЮЗ 2 16 км гроза без осадков 9/9 360 м
[Cb cap]
+27.5 +23.1 77 +37 +37 очень
душно
1007.2 1005.0 +37.5
21 21.03 З 2 12 км {гроза} 9/9 360 м
[Sc]
+27.5 +24.0 81 +38 +38 очень
душно
1009.9 1007.7
06 22.03 С 1 10 км гроза, ливневой дождь 9/9 300 м
[Cb cap]
+23.1 +21.7 92 +31 +31 очень
душно
1012.7 1010.5 +23.0 1
15 22.03 В 2 20 км 9/0 300 м
[Ac trans Cs]
+32.0 +23.0 59 +42 +50 опасность
перегрева
1008.4 1006.3
18 22.03 СЗ 1 18 км 9/0
[Ac trans Ci sp]
+30.3 +23.3 66 +41 +41 опасность
перегрева
1007.9 1005.7 2
21 22.03 ЮЗ 2 12 км 5/0
[Ac trans]
+27.8 +24.0 80 +39 +39 очень
душно
1010.4 1008.2
03 23.03 штиль 0 12 км 9/5 360 м
[Sc Ac trans]
+26.0 +23.9 88 +36 +36 очень
душно
1009.9 1007.7
06 23.03 штиль 0 12 км 8/3 360 м
[Sc As op]
+25.6 +24.5 94 +36 +36 очень
душно
1010.1 1007.9 +24.0
12 23.03 Ю 1 14 км 6/0
[Ci sp]
+35.5 +22.5 47 +45 +67 опасность
перегрева
1011.2 1009.1
18 23.03 ЮЗ 1 16 км 6/1 480 м
[Cu med, cong Ci sp]
+32.5 +23.7 60 +44 +44 опасность
перегрева
1008.6 1006.5 +37.1
21 23.03 ЮЗ 2 12 км ясно +29.0 +23.5 72 +39 +39 очень
душно
1011.1 1008.9
00 24.03 ЮЗ 1 12 км 4/0
[Ac trans Ci sp]
+27.6 +24.1 81 +38 +38 очень
душно
1011.3 1009.1
09 24.03 ЮЗ 2 16 км 1/1 420 м
[Cu hum]
+31.0 +25.0 70 +44 +55 опасность
перегрева
1011.7 1009.5
15 24.03 ЮЗ 2 16 км 5/4 540 м
[Cu med, cong Ci sp]
+36.5 +24.5 50 +49 +56 опасность
перегрева
1008.3 1006.2
18 24.03 ЮВ 3 16 км 9/5 360 м
[Cb cap Cs]
+31.5 +24.8 68 +45 +45 опасность
перегрева
1009.5 1007.4 +37.0
21 24.03 ЮЗ 1 12 км в посл. час гроза 9/9 360 м
[Cb cap]
+26.6 +21.5 74 +34 +34 очень
душно
1012.3 1010.1
00 25.03 ЮЗ 1 12 км {гроза} 9/9 360 м
[Sc]
+26.5 +22.3 78 +35 +35 очень
душно
1013.1 1010.9
06 25.03 ЮВ 1 14 км 9/0
[Ac trans]
+26.5 +23.8 85 +36 +36 очень
душно
1010.5 1008.3 +26.0
12 25.03 ЮЗ 3 16 км 9/4 420 м
[Cu med, cong Ac trans Cs]
+33.7 +24.0 57 +46 +53 опасность
перегрева
1011.8 1009.7
15 25.03 Ю 3 16 км 9/1 400 м
[Cu Sc Ac trans Cs]
+34.9 +24.2 54 +47 +52 опасность
перегрева
1009.2 1007.1
18 25.03 Ю 3 14 км 9/0
[Ac trans Cs]
+31.2 +24.8 69 +44 +44 опасность
перегрева
1009.6 1007.4 +35.5
21 25.03 З 2 12 км ясно +28.5 +25.6 84 +42 +42 опасность
перегрева
1012.0 1009.8
03 26.03 ЮВ 1 12 км 5/0
[Ac trans]
+26.0 +24.6 92 +37 +37 очень
душно
1011.0 1008.8
06 26.03 штиль 0 12 км 4/0
[Ci sp]
+25.5 +24.1 92 +35 +35 очень
душно
1010.8 1008.6 +25.0
09 26.03 ЮЗ 2 14 км 8/8 450 м
[Cu med, cong]
+30.5 +25.9 76 +45 +48 опасность
перегрева
1012.6 1010.4
12 26.03 ЮЗ 1 14 км 6/6 450 м
[Cu med, cong]
+35.0 +25.5 58 +50 +60 опасность
перегрева
1011.4 1009.3
15 26.03 ЮВ 1 18 км 3/3 480 м
[Cu med, cong]
+36.1 +23.4 48 +47 +56 опасность
перегрева
1008.8 1006.7
18 26.03 ЮВ 2 18 км 3/0
[Ac trans]
+31.5 +24.1 65 +43 +43 опасность
перегрева
1009.5 1007.4 +36.0

 

Местоположение метеостанции Акюс (Гана): широта 6.10 долгота 0.12 высота над уровнем моря 19 м.

В архиве по умолчанию представлена погода в Акюсе за последнюю неделю. Архивные данные за месяц целиком и за предыдущие месяцы, начиная с января 2011 года, Вы можете получить, выбрав интересующий диапазон дат из раскрывающегося списка и нажав кнопку "Ввод!".


*Определитесь, кто Вы:
робот инопланетянин человек

Внимание! Время в таблицах - всемирное. Для получения местного времени необходимо прибавить поправку, которая равна 1 ч.

Смотрите также архив погоды в соседних городах и на ближайших метеорологических станциях:

Погода в Кофоридуа (Гана) (41 км)
Погода в Тема (Гана) (55 км)
Погода в Аккра (Гана) (64 км)
Погода в Ада (Гана) (67 км)
Погода в Хо (Гана) (68 км)
Погода в Акатзи (Гана) (75 км)
Погода в Абетифи (Гана) (115 км)
Погода в Аким Ода (Гана) (123 км)
Погода в Ломе (Того) (125 км)
Погода в Таблигбо (Того) (162 км)

Пояснения к столбцам:

Ветер - указаны скорость ветра в м/с - средняя за 10 мин, порывы в срок и между сроками (в фигурных скобках) и направление, откуда дует ветер: С - северный, СВ - северо-восточный, В - восточный, ЮВ - юго-восточный, Ю - южный, ЮЗ - юго-западный, З - западный, СЗ - северо-западный.
Видимость - горизонтальная дальность видимости в метрах или километрах. При видимости от 1 до 10 км при отсутствии осадков обычно наблюдается дымка, при ухудшении видимости до 1 км и менее - туман. В сухую погоду видимость может ухудшаться дымом, пылью или мглою.
Явления - указаны атмосферные явления, наблюдавшиеся в срок или в последний час перед сроком; фигурными скобками обозначены явления, наблюдавшиеся между сроками (за 1-3 часа до срока); квадратными скобками обозначены град или гололедные отложения с указанием их диаметра в мм.
Облачность - указаны через наклонную черту общая и нижняя облачность в баллах и высота нижней границы облаков в метрах; квадратными скобками обозначены формы облаков: Ci - перистые, Cs - перисто-слоистые, Cc - перисто-кучевые, Ac - высококучевые, As - высокослоистые, Sc - слоисто-кучевые, Ns - слоисто-дождевые, Cu - кучевые, Cb - кучево-дождевые. Подробнее классификацию облаков см. в Атласе облаков (PDF).
T - Температура воздуха - температура, измеренная на высоте 2 м над землей.
Td - Температура точки росы - температура, при понижении до которой содержащийся в воздухе водяной пар достигнет насыщения.
f - Относительная влажность воздуха - влажноcть воздуха, измеренная на высоте 2 м над землей.
Te - Эффективная температура - температура, которую ощущает одетый по сезону человек в тени. Характеристика душности погоды. При расчете учитывается влияние влажности воздуха и скорости ветра на теплоощущения человека.
Tes - Эффективная температура на солнце - температура, которую ощущает человек, с поправкой на солнечный нагрев. Характеристика знойности погоды. Зависит от высоты солнца над горизонтом, облачности и скорости ветра. Ночью, в пасмурную погоду, а также при ветре 12 м/с и более поправка равна нулю.
P - Атмосферное давление - приведенное к уровню моря атмосферное давление.
Po - Атмосферное давление - измеренное на уровне метеостанции атмосферное давление.
Tmin - Минимальная температура - минимум температуры воздуха на высоте 2 м над землей.
Tmax - Максимальная температура - максимум температуры воздуха на высоте 2 м над землей.
R - Количество осадков - Количество выпавших осадков за период времени, мм. При наведении курсора мыши на число - период времени, за который выпало указанное количество осадков.
R24 - Количество осадков - Количество выпавших осадков за 24 часа, мм.
S - Снежный покров - Высота снежного покрова, см. При наведении курсора мыши на число - состояние снежного покрова и степень покрытия местности в баллах.